Previsão horária em Allanche

Hoje, 16 Junho, Quarta-feira

Tempo Temperatura Precipitação Vento Pressão Humidade
00:00 +15°C° 0 mm 1 m/s 670 mmHg 81%
01:00 +15°C° 0 mm 1 m/s 670 mmHg 82%
02:00 +14°C° 0 mm 1 m/s 669 mmHg 83%
03:00 +14°C° 0 mm 1 m/s 669 mmHg 83%
04:00 +15°C° 0 mm 1 m/s 669 mmHg 80%
05:00 +18°C° 0 mm 1 m/s 669 mmHg 77%
06:00 +19°C° 0 mm 1 m/s 670 mmHg 74%
07:00 +21°C° 0 mm 1 m/s 670 mmHg 65%
08:00 +24°C° 0 mm 1 m/s 670 mmHg 56%
09:00 +26°C° 0 mm 2 m/s 670 mmHg 46%
10:00 +27°C° 0 mm 2 m/s 670 mmHg 42%
11:00 +28°C° 0 mm 2 m/s 670 mmHg 39%
12:00 +29°C° 0 mm 2 m/s 670 mmHg 35%
13:00 +28°C° 0 mm 2 m/s 670 mmHg 37%
14:00 +28°C° 0 mm 2 m/s 669 mmHg 40%
15:00 +28°C° 0 mm 2 m/s 669 mmHg 43%
16:00 +27°C° 0 mm 2 m/s 669 mmHg 49%
17:00 +26°C° 0 mm 2 m/s 668 mmHg 54%
18:00 +25°C° 0 mm 2 m/s 668 mmHg 60%
19:00 +23°C° 0 mm 2 m/s 668 mmHg 63%
20:00 +20°C° 0 mm 2 m/s 668 mmHg 66%
21:00 +18°C° 0 mm 2 m/s 667 mmHg 69%
22:00 +17°C° 0.3 mm 2 m/s 668 mmHg 76%
23:00 +15°C° 0.3 mm 1 m/s 668 mmHg 82%

Amanhã, 17 Junho, Quinta-feira

Tempo Temperatura Precipitação Vento Pressão Humidade
00:00 +14°C° 0.3 mm 1 m/s 668 mmHg 89%
01:00 +14°C° 0 mm 1 m/s 668 mmHg 89%
02:00 +13°C° 0 mm 2 m/s 667 mmHg 89%
03:00 +13°C° 0 mm 2 m/s 667 mmHg 89%
04:00 +14°C° 0 mm 2 m/s 667 mmHg 87%
05:00 +15°C° 0 mm 1 m/s 667 mmHg 85%
06:00 +16°C° 0 mm 1 m/s 668 mmHg 84%
07:00 +18°C° 0 mm 2 m/s 668 mmHg 72%
08:00 +20°C° 0 mm 2 m/s 668 mmHg 59%
09:00 +24°C° 0 mm 2 m/s 669 mmHg 47%
10:00 +24°C° 0 mm 3 m/s 669 mmHg 47%
11:00 +24°C° 0 mm 3 m/s 669 mmHg 47%
12:00 +24°C° 0 mm 3 m/s 669 mmHg 47%
13:00 +22°C° 0.1 mm 4 m/s 668 mmHg 52%
14:00 +21°C° 0.1 mm 4 m/s 668 mmHg 58%
15:00 +20°C° 0.1 mm 4 m/s 668 mmHg 63%
16:00 +20°C° 0.1 mm 4 m/s 667 mmHg 62%
17:00 +19°C° 0.1 mm 4 m/s 667 mmHg 61%
18:00 +19°C° 0.1 mm 5 m/s 667 mmHg 59%
19:00 +18°C° 0 mm 4 m/s 667 mmHg 63%
20:00 +17°C° 0 mm 4 m/s 667 mmHg 67%
21:00 +14°C° 0 mm 3 m/s 667 mmHg 71%
22:00 +14°C° 0.4 mm 3 m/s 667 mmHg 77%
23:00 +14°C° 0.4 mm 3 m/s 667 mmHg 83%

Depois de amanhã, 18 Junho, Sexta-feira

Tempo Temperatura Precipitação Vento Pressão Humidade
00:00 +14°C° 0.4 mm 2 m/s 667 mmHg 89%
01:00 +14°C° 0.8 mm 2 m/s 667 mmHg 92%
02:00 +14°C° 0.8 mm 2 m/s 667 mmHg 94%
03:00 +14°C° 0.8 mm 1 m/s 667 mmHg 97%
04:00 +14°C° 0.3 mm 1 m/s 667 mmHg 97%
05:00 +14°C° 0.3 mm 1 m/s 668 mmHg 97%
06:00 +14°C° 0.3 mm 1 m/s 668 mmHg 97%
07:00 +15°C° 0 mm 1 m/s 668 mmHg 94%
08:00 +15°C° 0 mm 1 m/s 669 mmHg 90%
09:00 +16°C° 0 mm 2 m/s 669 mmHg 87%
10:00 +17°C° 0 mm 2 m/s 670 mmHg 78%
11:00 +19°C° 0 mm 2 m/s 670 mmHg 69%
12:00 +20°C° 0 mm 2 m/s 670 mmHg 60%
13:00 +21°C° 0 mm 2 m/s 670 mmHg 58%
14:00 +23°C° 0 mm 2 m/s 670 mmHg 56%
15:00 +23°C° 0 mm 2 m/s 670 mmHg 54%
16:00 +23°C° 0 mm 2 m/s 670 mmHg 60%
17:00 +22°C° 0 mm 1 m/s 670 mmHg 65%
18:00 +22°C° 0 mm 1 m/s 670 mmHg 71%
19:00 +20°C° 0 mm 1 m/s 670 mmHg 75%
20:00 +18°C° 0 mm 1 m/s 670 mmHg 79%
21:00 +16°C° 0 mm 1 m/s 670 mmHg 83%
22:00 +15°C° 0.1 mm 1 m/s 670 mmHg 87%
23:00 +14°C° 0.1 mm 1 m/s 670 mmHg 90%

19 Junho, Sábado

Tempo Temperatura Precipitação Vento Pressão Humidade
00:00 +13°C° 0.1 mm 1 m/s 670 mmHg 94%
01:00 +13°C° 0 mm 1 m/s 669 mmHg 95%
02:00 +13°C° 0 mm 1 m/s 669 mmHg 95%
03:00 +13°C° 0 mm 1 m/s 669 mmHg 96%
04:00 +13°C° 0 mm 1 m/s 669 mmHg 94%
05:00 +14°C° 0 mm 1 m/s 669 mmHg 93%
06:00 +15°C° 0 mm 1 m/s 669 mmHg 91%
07:00 +18°C° 0 mm 2 m/s 670 mmHg 80%
08:00 +20°C° 0 mm 2 m/s 670 mmHg 69%
09:00 +22°C° 0 mm 3 m/s 671 mmHg 57%
10:00 +24°C° 0 mm 3 m/s 670 mmHg 55%
11:00 +24°C° 0 mm 3 m/s 670 mmHg 54%
12:00 +25°C° 0 mm 3 m/s 670 mmHg 52%
13:00 +25°C° 0 mm 3 m/s 670 mmHg 50%
14:00 +26°C° 0 mm 3 m/s 670 mmHg 47%
15:00 +27°C° 0 mm 3 m/s 670 mmHg 45%
16:00 +26°C° 0 mm 4 m/s 669 mmHg 49%
17:00 +25°C° 0 mm 4 m/s 669 mmHg 52%
18:00 +23°C° 0 mm 5 m/s 668 mmHg 55%
19:00 +22°C° 0 mm 5 m/s 668 mmHg 54%
20:00 +21°C° 0 mm 4 m/s 668 mmHg 53%
21:00 +20°C° 0 mm 4 m/s 668 mmHg 52%
22:00 +20°C° 0 mm 5 m/s 668 mmHg 50%
23:00 +21°C° 0 mm 5 m/s 668 mmHg 48%

20 Junho, Domingo

Tempo Temperatura Precipitação Vento Pressão Humidade
00:00 +21°C° 0 mm 6 m/s 667 mmHg 45%
01:00 +20°C° 0 mm 5 m/s 667 mmHg 48%
02:00 +20°C° 0 mm 4 m/s 666 mmHg 51%
03:00 +19°C° 0 mm 3 m/s 666 mmHg 54%
04:00 +18°C° 0.1 mm 3 m/s 666 mmHg 63%
05:00 +18°C° 0.1 mm 2 m/s 666 mmHg 72%
06:00 +17°C° 0.1 mm 2 m/s 666 mmHg 81%
07:00 +18°C° 0 mm 3 m/s 666 mmHg 76%
08:00 +19°C° 0 mm 3 m/s 667 mmHg 71%
09:00 +20°C° 0 mm 4 m/s 667 mmHg 66%
10:00 +20°C° 0.1 mm 4 m/s 667 mmHg 67%
11:00 +20°C° 0.1 mm 3 m/s 667 mmHg 67%
12:00 +20°C° 0.1 mm 3 m/s 667 mmHg 67%
13:00 +20°C° 0.6 mm 3 m/s 667 mmHg 67%
14:00 +21°C° 0.6 mm 3 m/s 666 mmHg 67%
15:00 +21°C° 0.6 mm 3 m/s 666 mmHg 67%
16:00 +19°C° 0.6 mm 2 m/s 666 mmHg 73%
17:00 +18°C° 0.6 mm 2 m/s 666 mmHg 79%
18:00 +18°C° 0.6 mm 1 m/s 666 mmHg 86%
19:00 +16°C° 1.1 mm 1 m/s 666 mmHg 89%
20:00 +15°C° 1.1 mm 1 m/s 666 mmHg 92%
21:00 +14°C° 1.1 mm 1 m/s 666 mmHg 94%
22:00 +13°C° 0.4 mm 1 m/s 666 mmHg 95%
23:00 +13°C° 0.4 mm 1 m/s 666 mmHg 95%

21 Junho, Segunda-feira

Tempo Temperatura Precipitação Vento Pressão Humidade
00:00 +13°C° 0.4 mm 1 m/s 666 mmHg 95%
01:00 +12°C° 0 mm 0 m/s 666 mmHg 94%
02:00 +12°C° 0 mm 0 m/s 666 mmHg 94%
03:00 +12°C° 0 mm 0 m/s 666 mmHg 94%
04:00 +12°C° 0 mm 0 m/s 666 mmHg 92%
05:00 +12°C° 0 mm 0 m/s 666 mmHg 91%
06:00 +13°C° 0 mm 0 m/s 666 mmHg 90%
07:00 +15°C° 0.1 mm 1 m/s 667 mmHg 80%
08:00 +18°C° 0.1 mm 1 m/s 667 mmHg 71%
09:00 +18°C° 0.1 mm 2 m/s 667 mmHg 61%
10:00 +18°C° 0.3 mm 2 m/s 667 mmHg 62%
11:00 +18°C° 0.3 mm 3 m/s 667 mmHg 63%
12:00 +18°C° 0.3 mm 3 m/s 667 mmHg 65%
13:00 +18°C° 0.3 mm 3 m/s 667 mmHg 66%
14:00 +18°C° 0.3 mm 3 m/s 668 mmHg 67%
15:00 +17°C° 0.3 mm 3 m/s 668 mmHg 68%
16:00 +17°C° 0.1 mm 3 m/s 668 mmHg 70%
17:00 +16°C° 0.1 mm 3 m/s 668 mmHg 72%
18:00 +15°C° 0.1 mm 2 m/s 668 mmHg 75%
19:00 +14°C° 0 mm 2 m/s 668 mmHg 79%
20:00 +13°C° 0 mm 2 m/s 668 mmHg 83%
21:00 +11°C° 0 mm 1 m/s 668 mmHg 87%
22:00 +11°C° 0 mm 1 m/s 668 mmHg 88%
23:00 +10°C° 0 mm 1 m/s 668 mmHg 89%
Mostrar mais